Find Starlink 36675

NORAD ID: 67663 Int'l Des: 2026-022 Owner: SPXS Country: US Constellation: starlink operational
LEOCIRCULARRETROGRADE

現在のビュー

3D地球を読み込み中...

Starlink 36675について

説明を読み込み中...

次回通過

Passes for default location (London). Set your location on the main map for personalized predictions.

高度履歴

Loading altitude history...

軌道要素

1 67663U 26022R 26146.06067118 .00022289 00000-0 69058-3 0 9992
2 67663 97.2841 179.3613 0001646 91.6427 268.5005 15.33449577 17436
Epoch: May 26, 2026 • Age: 17 hours

現在のステータス

高度 485.6 km
速度 7.62 km/s
衛星直下点 -49.69°S, 27.36°E
打ち上げ日 Feb 2, 2026
運用期間 0.3 years
タイプ internet

技術仕様

分類 Payload
質量 575.00 kg
乾燥質量 530.00 kg
総質量 575.00 kg
長さ 0.30 m
直径 4.10 m
スパン 29.00 m
形状 Box + pan
製造者 SPXS
バスタイプ Starlink V2MO
フェーズステータス In Orbit
所有者/国 SPXS/US

Most Searched